Time,TemperatureF,DewpointF,PressureIn,WindDirection,WindDirectionDegrees,WindSpeedMPH,WindSpeedGustMPH,Humidity,HourlyPrecipIn,Conditions,Clouds,dailyrainin,SoftwareType,DateUTC
2013-01-17 00:02:00,10.0,-4.0,30.21,WNW,285,8.0,15.0,52,0.00,,,0.00,,2013-01-17 06:02:00,
2013-01-17 00:12:00,10.0,-4.0,30.21,WNW,285,8.0,15.0,52,0.00,,,0.00,,2013-01-17 06:12:00,
2013-01-17 00:22:00,10.0,-5.0,30.22,WNW,288,9.0,14.0,50,0.00,,,0.00,,2013-01-17 06:22:00,
2013-01-17 00:32:00,10.0,-5.0,30.22,WNW,294,9.0,16.0,49,0.00,,,0.00,,2013-01-17 06:32:00,
2013-01-17 00:42:00,10.0,-5.0,30.22,WNW,294,9.0,16.0,49,0.00,,,0.00,,2013-01-17 06:42:00,
2013-01-17 00:52:00,9.0,-6.0,30.23,WNW,290,9.0,14.0,49,0.00,,,0.00,,2013-01-17 06:52:00,
2013-01-17 01:02:00,9.0,-6.0,30.23,WNW,292,7.0,11.0,49,0.00,,,0.00,,2013-01-17 07:02:00,
2013-01-17 01:12:00,9.0,-6.0,30.23,WNW,292,7.0,11.0,49,0.00,,,0.00,,2013-01-17 07:12:00,
2013-01-17 01:22:00,9.0,-5.0,30.24,NW,307,8.0,12.0,51,0.00,,,0.00,,2013-01-17 07:22:00,
2013-01-17 01:32:00,9.0,-5.0,30.24,NW,314,8.0,13.0,51,0.00,,,0.00,,2013-01-17 07:32:00,
2013-01-17 01:42:00,9.0,-5.0,30.24,NW,314,8.0,13.0,51,0.00,,,0.00,,2013-01-17 07:42:00,
2013-01-17 01:52:00,9.0,-5.0,30.24,WNW,301,8.0,12.0,52,0.00,,,0.00,,2013-01-17 07:52:00,
2013-01-17 02:02:00,9.0,-5.0,30.25,WNW,292,8.0,11.0,52,0.00,,,0.00,,2013-01-17 08:02:00,
2013-01-17 02:12:00,9.0,-5.0,30.25,WNW,292,8.0,11.0,52,0.00,,,0.00,,2013-01-17 08:12:00,
2013-01-17 02:22:00,9.0,-5.0,30.25,WNW,302,9.0,13.0,51,0.00,,,0.00,,2013-01-17 08:22:00,
2013-01-17 02:32:00,9.0,-5.0,30.24,NW,309,7.0,10.0,52,0.00,,,0.00,,2013-01-17 08:32:00,
2013-01-17 02:43:00,9.0,-5.0,30.24,NW,309,7.0,10.0,52,0.00,,,0.00,,2013-01-17 08:43:00,
2013-01-17 02:53:00,9.0,-5.0,30.25,NW,306,7.0,9.0,53,0.00,,,0.00,,2013-01-17 08:53:00,
2013-01-17 03:02:00,9.0,-4.0,30.26,WNW,293,4.0,7.0,54,0.00,,,0.00,,2013-01-17 09:02:00,
2013-01-17 03:12:00,9.0,-4.0,30.26,WNW,293,4.0,7.0,54,0.00,,,0.00,,2013-01-17 09:12:00,
2013-01-17 03:22:00,9.0,-4.0,30.26,WNW,298,4.0,7.0,55,0.00,,,0.00,,2013-01-17 09:22:00,
2013-01-17 03:32:00,8.0,-5.0,30.26,WNW,290,4.0,6.0,55,0.00,,,0.00,,2013-01-17 09:32:00,
2013-01-17 03:42:00,8.0,-5.0,30.26,WNW,290,4.0,6.0,55,0.00,,,0.00,,2013-01-17 09:42:00,
2013-01-17 03:52:00,8.0,-6.0,30.26,WNW,290,5.0,7.0,53,0.00,,,0.00,,2013-01-17 09:52:00,
2013-01-17 04:02:00,8.0,-6.0,30.26,WNW,297,5.0,7.0,52,0.00,,,0.00,,2013-01-17 10:02:00,
2013-01-17 04:12:00,8.0,-6.0,30.26,WNW,297,5.0,7.0,52,0.00,,,0.00,,2013-01-17 10:12:00,
2013-01-17 04:22:00,7.0,-6.0,30.26,WNW,293,3.0,5.0,55,0.00,,,0.00,,2013-01-17 10:22:00,
2013-01-17 04:32:00,7.0,-5.0,30.27,West,273,3.0,5.0,56,0.00,,,0.00,,2013-01-17 10:32:00,
2013-01-17 04:42:00,7.0,-5.0,30.27,West,273,3.0,5.0,56,0.00,,,0.00,,2013-01-17 10:42:00,
2013-01-17 04:53:00,7.0,-6.0,30.27,West,270,4.0,9.0,55,0.00,,,0.00,,2013-01-17 10:53:00,
2013-01-17 05:02:00,7.0,-6.0,30.28,West,261,4.0,7.0,55,0.00,,,0.00,,2013-01-17 11:02:00,
2013-01-17 05:12:00,7.0,-6.0,30.28,West,261,4.0,7.0,55,0.00,,,0.00,,2013-01-17 11:12:00,
2013-01-17 05:22:00,7.0,-6.0,30.28,West,262,5.0,10.0,54,0.00,,,0.00,,2013-01-17 11:22:00,
2013-01-17 05:32:00,7.0,-6.0,30.28,West,268,6.0,9.0,54,0.00,,,0.00,,2013-01-17 11:32:00,
2013-01-17 05:42:00,7.0,-6.0,30.28,West,268,6.0,9.0,54,0.00,,,0.00,,2013-01-17 11:42:00,
2013-01-17 05:53:00,7.0,-6.0,30.29,West,267,5.0,10.0,54,0.00,,,0.00,,2013-01-17 11:53:00,
2013-01-17 06:02:00,7.0,-6.0,30.29,West,262,5.0,10.0,55,0.00,,,0.00,,2013-01-17 12:02:00,
2013-01-17 06:12:00,7.0,-6.0,30.29,West,262,5.0,10.0,55,0.00,,,0.00,,2013-01-17 12:12:00,
2013-01-17 06:22:00,7.0,-6.0,30.29,West,261,5.0,8.0,55,0.00,,,0.00,,2013-01-17 12:22:00,
2013-01-17 06:32:00,6.0,-5.0,30.29,WSW,247,5.0,8.0,59,0.00,,,0.00,,2013-01-17 12:32:00,
2013-01-17 06:42:00,6.0,-5.0,30.29,WSW,247,5.0,8.0,59,0.00,,,0.00,,2013-01-17 12:42:00,
2013-01-17 06:53:00,6.0,-5.0,30.30,West,264,5.0,8.0,61,0.00,,,0.00,,2013-01-17 12:53:00,
2013-01-17 07:03:00,6.0,-4.0,30.29,WSW,245,7.0,11.0,63,0.00,,,0.00,,2013-01-17 13:03:00,
2013-01-17 07:12:00,6.0,-4.0,30.29,WSW,245,7.0,11.0,63,0.00,,,0.00,,2013-01-17 13:12:00,
2013-01-17 07:22:00,6.0,-4.0,30.29,WSW,255,5.0,8.0,63,0.00,,,0.00,,2013-01-17 13:22:00,
2013-01-17 07:33:00,6.0,-4.0,30.28,WSW,250,5.0,8.0,63,0.00,,,0.00,,2013-01-17 13:33:00,
2013-01-17 07:43:00,6.0,-4.0,30.28,WSW,250,5.0,8.0,63,0.00,,,0.00,,2013-01-17 13:43:00,
2013-01-17 07:53:00,6.0,-4.0,30.29,SW,229,5.0,9.0,63,0.00,,,0.00,,2013-01-17 13:53:00,
2013-01-17 08:03:00,6.0,-4.0,30.30,WSW,244,6.0,10.0,63,0.00,,,0.00,,2013-01-17 14:03:00,
2013-01-17 08:12:00,6.0,-4.0,30.30,WSW,244,6.0,10.0,63,0.00,,,0.00,,2013-01-17 14:12:00,
2013-01-17 08:23:00,6.0,-4.0,30.29,SW,224,5.0,9.0,62,0.00,,,0.00,,2013-01-17 14:23:00,
2013-01-17 08:33:00,6.0,-4.0,30.30,SW,219,5.0,8.0,62,0.00,,,0.00,,2013-01-17 14:33:00,
2013-01-17 08:42:00,6.0,-4.0,30.30,SW,219,5.0,8.0,62,0.00,,,0.00,,2013-01-17 14:42:00,
2013-01-17 08:53:00,7.0,-3.0,30.32,SW,235,5.0,12.0,62,0.00,,,0.00,,2013-01-17 14:53:00,
2013-01-17 09:03:00,6.0,-5.0,30.32,SW,230,7.0,11.0,60,0.00,,,0.00,,2013-01-17 15:03:00,
2013-01-17 09:12:00,6.0,-5.0,30.32,SW,230,7.0,11.0,60,0.00,,,0.00,,2013-01-17 15:12:00,
2013-01-17 09:22:00,7.0,-4.0,30.32,WSW,246,8.0,11.0,60,0.00,,,0.00,,2013-01-17 15:22:00,
2013-01-17 09:33:00,7.0,-4.0,30.33,WSW,252,6.0,12.0,60,0.00,,,0.00,,2013-01-17 15:33:00,
2013-01-17 09:43:00,7.0,-4.0,30.33,WSW,252,6.0,12.0,60,0.00,,,0.00,,2013-01-17 15:43:00,
2013-01-17 09:53:00,7.0,-3.0,30.33,WSW,251,5.0,7.0,62,0.00,,,0.00,,2013-01-17 15:53:00,
2013-01-17 10:02:00,8.0,-2.0,30.33,SW,217,4.0,7.0,62,0.00,,,0.00,,2013-01-17 16:02:00,
2013-01-17 10:12:00,8.0,-2.0,30.33,SW,217,4.0,7.0,62,0.00,,,0.00,,2013-01-17 16:12:00,
2013-01-17 10:22:00,8.0,-3.0,30.35,WSW,257,5.0,7.0,61,0.00,,,0.00,,2013-01-17 16:22:00,
2013-01-17 10:33:00,8.0,-2.0,30.33,WSW,241,3.0,7.0,62,0.00,,,0.00,,2013-01-17 16:33:00,
2013-01-17 10:43:00,8.0,-2.0,30.33,WSW,241,3.0,7.0,62,0.00,,,0.00,,2013-01-17 16:43:00,
2013-01-17 10:53:00,8.0,-1.0,30.34,WSW,241,3.0,6.0,65,0.00,,,0.00,,2013-01-17 16:53:00,
2013-01-17 11:03:00,9.0,0.0,30.34,WSW,252,5.0,9.0,66,0.00,,,0.00,,2013-01-17 17:03:00,
2013-01-17 11:12:00,9.0,0.0,30.34,WSW,252,5.0,9.0,66,0.00,,,0.00,,2013-01-17 17:12:00,
2013-01-17 11:22:00,9.0,1.0,30.35,WSW,242,5.0,8.0,68,0.00,,,0.00,,2013-01-17 17:22:00,
2013-01-17 11:33:00,9.0,1.0,30.35,WSW,244,6.0,9.0,68,0.00,,,0.00,,2013-01-17 17:33:00,
2013-01-17 11:43:00,9.0,1.0,30.35,WSW,244,6.0,9.0,68,0.00,,,0.00,,2013-01-17 17:43:00,
2013-01-17 11:53:00,10.0,2.0,30.34,WSW,256,6.0,9.0,68,0.00,,,0.00,,2013-01-17 17:53:00,
2013-01-17 12:03:00,11.0,2.0,30.33,West,263,6.0,10.0,66,0.00,,,0.00,,2013-01-17 18:03:00,
2013-01-17 12:12:00,11.0,2.0,30.33,West,263,6.0,10.0,66,0.00,,,0.00,,2013-01-17 18:12:00,
2013-01-17 12:22:00,11.0,2.0,30.33,WSW,256,6.0,10.0,67,0.00,,,0.00,,2013-01-17 18:22:00,
2013-01-17 12:33:00,12.0,3.0,30.33,West,261,6.0,11.0,67,0.00,,,0.00,,2013-01-17 18:33:00,
2013-01-17 12:43:00,12.0,3.0,30.33,West,261,6.0,11.0,67,0.00,,,0.00,,2013-01-17 18:43:00,
2013-01-17 12:53:00,12.0,3.0,30.33,West,266,7.0,13.0,65,0.00,,,0.00,,2013-01-17 18:53:00,
2013-01-17 13:03:00,13.0,3.0,30.32,West,270,7.0,11.0,65,0.00,,,0.00,,2013-01-17 19:03:00,
2013-01-17 13:12:00,13.0,3.0,30.32,West,270,7.0,11.0,65,0.00,,,0.00,,2013-01-17 19:12:00,
2013-01-17 13:23:00,13.0,3.0,30.32,West,266,8.0,16.0,64,0.00,,,0.00,,2013-01-17 19:23:00,
2013-01-17 13:33:00,14.0,4.0,30.32,West,268,7.0,13.0,64,0.00,,,0.00,,2013-01-17 19:33:00,
2013-01-17 13:43:00,14.0,4.0,30.32,West,268,7.0,13.0,64,0.00,,,0.00,,2013-01-17 19:43:00,
2013-01-17 13:53:00,14.0,4.0,30.31,WNW,282,10.0,16.0,63,0.00,,,0.00,,2013-01-17 19:53:00,
2013-01-17 14:03:00,14.0,4.0,30.31,WNW,283,8.0,13.0,64,0.00,,,0.00,,2013-01-17 20:03:00,
2013-01-17 14:12:00,14.0,4.0,30.31,WNW,283,8.0,13.0,64,0.00,,,0.00,,2013-01-17 20:12:00,
2013-01-17 14:23:00,14.0,4.0,30.32,West,273,8.0,13.0,64,0.00,,,0.00,,2013-01-17 20:23:00,
2013-01-17 14:33:00,14.0,4.0,30.32,West,275,8.0,14.0,64,0.00,,,0.00,,2013-01-17 20:33:00,
2013-01-17 14:43:00,14.0,4.0,30.32,West,275,8.0,14.0,64,0.00,,,0.00,,2013-01-17 20:43:00,
2013-01-17 14:54:00,14.0,4.0,30.32,West,278,8.0,13.0,63,0.00,,,0.00,,2013-01-17 20:54:00,
2013-01-17 15:03:00,15.0,5.0,30.31,WNW,286,9.0,15.0,63,0.00,,,0.00,,2013-01-17 21:03:00,
2013-01-17 15:13:00,15.0,5.0,30.31,WNW,286,9.0,15.0,63,0.00,,,0.00,,2013-01-17 21:13:00,
2013-01-17 15:23:00,14.0,4.0,30.31,WNW,289,11.0,18.0,63,0.00,,,0.00,,2013-01-17 21:23:00,
2013-01-17 15:33:00,14.0,4.0,30.32,WNW,289,9.0,14.0,63,0.00,,,0.00,,2013-01-17 21:33:00,
2013-01-17 15:43:00,14.0,4.0,30.32,WNW,289,9.0,14.0,63,0.00,,,0.00,,2013-01-17 21:43:00,
2013-01-17 15:53:00,14.0,4.0,30.32,WNW,288,9.0,14.0,64,0.00,,,0.00,,2013-01-17 21:53:00,
2013-01-17 16:03:00,14.0,4.0,30.32,West,281,6.0,12.0,64,0.00,,,0.00,,2013-01-17 22:03:00,
2013-01-17 16:12:00,14.0,4.0,30.32,West,281,6.0,12.0,64,0.00,,,0.00,,2013-01-17 22:12:00,
2013-01-17 16:23:00,14.0,4.0,30.33,WSW,257,7.0,11.0,64,0.00,,,0.00,,2013-01-17 22:23:00,
2013-01-17 16:33:00,14.0,4.0,30.33,West,266,6.0,11.0,64,0.00,,,0.00,,2013-01-17 22:33:00,
2013-01-17 16:42:00,14.0,4.0,30.33,West,266,6.0,11.0,64,0.00,,,0.00,,2013-01-17 22:42:00,
2013-01-17 16:53:00,13.0,3.0,30.33,WSW,256,6.0,11.0,65,0.00,,,0.00,,2013-01-17 22:53:00,
2013-01-17 17:03:00,13.0,4.0,30.33,West,262,5.0,10.0,66,0.00,,,0.00,,2013-01-17 23:03:00,
2013-01-17 17:12:00,13.0,4.0,30.33,West,262,5.0,10.0,66,0.00,,,0.00,,2013-01-17 23:12:00,
2013-01-17 17:22:00,13.0,4.0,30.33,WSW,257,4.0,6.0,66,0.00,,,0.00,,2013-01-17 23:22:00,
2013-01-17 17:33:00,12.0,4.0,30.33,West,261,3.0,4.0,68,0.00,,,0.00,,2013-01-17 23:33:00,
2013-01-17 17:42:00,12.0,4.0,30.33,West,261,3.0,4.0,68,0.00,,,0.00,,2013-01-17 23:42:00,
2013-01-17 17:53:00,12.0,4.0,30.33,West,262,2.0,3.0,69,0.00,,,0.00,,2013-01-17 23:53:00,
2013-01-17 18:02:00,10.0,3.0,30.32,West,262,2.0,3.0,71,0.00,,,0.00,,2013-01-18 00:02:00,
2013-01-17 18:12:00,10.0,3.0,30.32,West,262,2.0,3.0,71,0.00,,,0.00,,2013-01-18 00:12:00,
2013-01-17 18:23:00,9.0,2.0,30.32,West,262,2.0,2.0,73,0.00,,,0.00,,2013-01-18 00:23:00,
2013-01-17 18:32:00,9.0,2.0,30.32,West,262,2.0,2.0,73,0.00,,,0.00,,2013-01-18 00:32:00,
2013-01-17 18:42:00,9.0,2.0,30.33,West,262,2.0,4.0,74,0.00,,,0.00,,2013-01-18 00:42:00,
2013-01-17 18:53:00,8.0,2.0,30.33,West,261,2.0,3.0,77,0.00,,,0.00,,2013-01-18 00:53:00,
2013-01-17 19:02:00,10.0,4.0,30.33,West,260,3.0,5.0,76,0.00,,,0.00,,2013-01-18 01:02:00,
2013-01-17 19:12:00,10.0,4.0,30.33,West,260,3.0,5.0,76,0.00,,,0.00,,2013-01-18 01:12:00,
2013-01-17 19:22:00,10.0,3.0,30.34,West,259,3.0,5.0,73,0.00,,,0.00,,2013-01-18 01:22:00,
2013-01-17 19:33:00,9.0,2.0,30.34,West,259,2.0,4.0,74,0.00,,,0.00,,2013-01-18 01:33:00,
2013-01-17 19:43:00,9.0,2.0,30.34,West,259,2.0,4.0,74,0.00,,,0.00,,2013-01-18 01:43:00,
2013-01-17 19:53:00,8.0,2.0,30.33,WSW,258,3.0,4.0,76,0.00,,,0.00,,2013-01-18 01:53:00,
2013-01-17 20:02:00,8.0,3.0,30.32,WSW,249,2.0,3.0,78,0.00,,,0.00,,2013-01-18 02:02:00,
2013-01-17 20:12:00,8.0,3.0,30.32,WSW,249,2.0,3.0,78,0.00,,,0.00,,2013-01-18 02:12:00,
2013-01-17 20:22:00,7.0,2.0,30.32,WSW,250,1.0,2.0,79,0.00,,,0.00,,2013-01-18 02:22:00,
2013-01-17 20:32:00,6.0,1.0,30.32,WSW,250,2.0,3.0,80,0.00,,,0.00,,2013-01-18 02:32:00,
2013-01-17 20:42:00,6.0,1.0,30.32,WSW,250,2.0,3.0,80,0.00,,,0.00,,2013-01-18 02:42:00,
2013-01-17 20:53:00,7.0,2.0,30.31,WSW,249,1.0,2.0,81,0.00,,,0.00,,2013-01-18 02:53:00,
2013-01-17 21:02:00,7.0,2.0,30.31,WSW,250,2.0,4.0,81,0.00,,,0.00,,2013-01-18 03:02:00,
2013-01-17 21:12:00,7.0,2.0,30.31,WSW,250,2.0,4.0,81,0.00,,,0.00,,2013-01-18 03:12:00,
2013-01-17 21:23:00,8.0,3.0,30.30,WSW,249,3.0,4.0,81,0.00,,,0.00,,2013-01-18 03:23:00,
2013-01-17 21:33:00,9.0,4.0,30.30,SSW,200,3.0,7.0,80,0.00,,,0.00,,2013-01-18 03:33:00,
2013-01-17 21:42:00,9.0,4.0,30.30,SSW,200,3.0,7.0,80,0.00,,,0.00,,2013-01-18 03:42:00,
2013-01-17 21:53:00,10.0,5.0,30.30,SSW,199,2.0,3.0,78,0.00,,,0.00,,2013-01-18 03:53:00,
2013-01-17 22:02:00,10.0,5.0,30.29,SSW,199,2.0,4.0,78,0.00,,,0.00,,2013-01-18 04:02:00,
2013-01-17 22:12:00,10.0,5.0,30.29,SSW,199,2.0,4.0,78,0.00,,,0.00,,2013-01-18 04:12:00,
2013-01-17 22:22:00,11.0,5.0,30.29,SSW,199,3.0,5.0,77,0.00,,,0.00,,2013-01-18 04:22:00,
2013-01-17 22:32:00,11.0,5.0,30.29,SSW,200,3.0,5.0,75,0.00,,,0.00,,2013-01-18 04:32:00,
2013-01-17 22:42:00,11.0,5.0,30.29,SSW,200,3.0,5.0,75,0.00,,,0.00,,2013-01-18 04:42:00,
2013-01-17 22:53:00,12.0,6.0,30.28,SSW,195,4.0,6.0,76,0.00,,,0.00,,2013-01-18 04:53:00,
2013-01-17 23:03:00,12.0,6.0,30.27,South,174,6.0,9.0,76,0.00,,,0.00,,2013-01-18 05:03:00,
2013-01-17 23:12:00,12.0,6.0,30.27,South,174,6.0,9.0,76,0.00,,,0.00,,2013-01-18 05:12:00,
2013-01-17 23:22:00,12.0,6.0,30.26,South,179,4.0,9.0,77,0.00,,,0.00,,2013-01-18 05:22:00,
2013-01-17 23:33:00,12.0,6.0,30.26,SSW,206,2.0,5.0,77,0.00,,,0.00,,2013-01-18 05:33:00,
2013-01-17 23:42:00,12.0,6.0,30.26,SSW,206,2.0,5.0,77,0.00,,,0.00,,2013-01-18 05:42:00,
2013-01-17 23:53:00,12.0,6.0,30.25,SSW,206,3.0,5.0,78,0.00,,,0.00,,2013-01-18 05:53:00,